TimePST,TemperatureF,Dew PointF,Humidity,Sea Level PressureIn,VisibilityMPH,Wind Direction,Wind SpeedMPH,Gust SpeedMPH,PrecipitationIn,Events,Conditions,WindDirDegrees,DateUTC
12:56 AM,50.0,46.9,89,30.41,10.0,Calm,Calm,-,N/A,,Clear,0,2013-02-28 08:56:00
1:56 AM,48.9,46.0,90,30.41,10.0,Calm,Calm,-,N/A,,Clear,0,2013-02-28 09:56:00
2:56 AM,48.0,44.1,86,30.40,10.0,Calm,Calm,-,N/A,,Clear,0,2013-02-28 10:56:00
3:56 AM,46.0,43.0,89,30.40,10.0,Calm,Calm,-,N/A,,Clear,0,2013-02-28 11:56:00
4:56 AM,46.0,42.1,86,30.41,10.0,Calm,Calm,-,N/A,,Clear,0,2013-02-28 12:56:00
5:56 AM,46.9,42.1,83,30.43,10.0,West,3.5,-,N/A,,Clear,260,2013-02-28 13:56:00
6:56 AM,46.9,43.0,86,30.43,10.0,Calm,Calm,-,N/A,,Clear,0,2013-02-28 14:56:00
7:56 AM,50.0,46.0,86,30.46,10.0,Calm,Calm,-,N/A,,Clear,0,2013-02-28 15:56:00
8:56 AM,54.0,48.0,80,30.47,10.0,Calm,Calm,-,N/A,,Clear,0,2013-02-28 16:56:00
9:56 AM,59.0,48.0,67,30.48,10.0,North,5.8,-,N/A,,Clear,350,2013-02-28 17:56:00
10:56 AM,60.1,48.0,64,30.47,10.0,NNW,8.1,-,N/A,,Clear,330,2013-02-28 18:56:00
11:56 AM,62.1,50.0,65,30.46,10.0,North,8.1,-,N/A,,Clear,350,2013-02-28 19:56:00
12:56 PM,64.0,48.0,56,30.43,10.0,North,9.2,-,N/A,,Clear,350,2013-02-28 20:56:00
1:56 PM,63.0,48.9,60,30.43,10.0,North,15.0,-,N/A,,Clear,350,2013-02-28 21:56:00
2:56 PM,63.0,51.1,65,30.42,10.0,NNW,13.8,-,N/A,,Clear,340,2013-02-28 22:56:00
3:56 PM,63.0,51.1,65,30.41,10.0,NNW,12.7,-,N/A,,Clear,340,2013-02-28 23:56:00
4:56 PM,60.1,51.1,72,30.41,10.0,North,11.5,-,N/A,,Clear,350,2013-03-01 00:56:00
5:56 PM,57.0,51.1,81,30.41,10.0,North,6.9,-,N/A,,Clear,360,2013-03-01 01:56:00
6:56 PM,55.9,52.0,87,30.43,10.0,NNW,8.1,-,N/A,,Clear,340,2013-03-01 02:56:00
7:56 PM,54.0,51.1,90,30.45,10.0,North,8.1,-,N/A,,Clear,360,2013-03-01 03:56:00
8:56 PM,52.0,50.0,93,30.46,10.0,North,4.6,-,N/A,,Clear,10,2013-03-01 04:56:00
9:56 PM,52.0,50.0,93,30.47,10.0,Calm,Calm,-,N/A,,Clear,0,2013-03-01 05:56:00
10:56 PM,52.0,50.0,93,30.47,10.0,Calm,Calm,-,N/A,,Clear,0,2013-03-01 06:56:00
11:56 PM,52.0,50.0,93,30.46,10.0,Calm,Calm,-,N/A,,Clear,0,2013-03-01 07:56:00